Current Weather Conditions by Major Hwy


I-84 West to East [Columbia River Gorge] 1100 AM PDT TUE MAY 23 2017 ELEVA CITY SKY/WX TMP DP RH WIND PRES REMARKS 10 ASTORIA, OR SUNNY 60 52 74 NW16 30.10R 20 KELSO SUNNY 70 55 59 NW9 30.03F 40 PORTLAND, OR MOSUNNY 74 51 44 N6 30.01S 30 TROUTDALE, OR SUNNY 74 55 51 SW6 30.00F 240 THE DALLES, OR SUNNY 78 54 43 N5 29.94F 620 HERMISTON, OR SUNNY 79 48 33 W5 29.95F 1,480 PENDLETON, OR SUNNY 79 48 33 VRB3 29.98F 2,710 LA GRANDE SUNNY 72 50 46 CALM 30.06F 3,370 BAKER CITY SUNNY 73 50 44 CALM 30.09F 2,190 ONTARIO SUNNY 75 49 39 CALM 30.09F
I-90 West to East 1100 AM PDT TUE MAY 23 2017 ELEVA CITY SKY/WX TMP DP RH WIND PRES REMARKS 30 SEATAC AIRPORT MOSUNNY 72 56 57 W8 30.00F 1,730 ELLENSBURG SUNNY 76 52 43 VRB3 29.97F 1,200 MOSES LAKE SUNNY 80 48 32 SW9 29.95F 1,880 SPOKANE GEIGER MOSUNNY 76 45 33 S9 30.00F
I-82 North West to South East 1100 AM PDT TUE MAY 23 2017 ELEVA CITY SKY/WX TMP DP RH WIND PRES REMARKS 1,730 ELLENSBURG SUNNY 76 52 43 VRB3 29.97F 1,050 YAKIMA SUNNY 82 52 35 SE3 29.95F 720 360 PASCO SUNNY 81 49 32 VRB3 29.94F 620 HERMISTON, OR SUNNY 79 48 33 W5 29.95F
Hwy97 North to South 1100 AM PDT TUE MAY 23 2017 ELEVA CITY SKY/WX TMP DP RH WIND PRES REMARKS 850 OMAK SUNNY 74 50 42 S7 29.93F 630 WENATCHEE SUNNY 77 46 33 CALM 29.93F 1,730 ELLENSBURG SUNNY 76 52 43 VRB3 29.97F 1,050 YAKIMA SUNNY 82 52 35 SE3 29.95F 1,640 GOLDENDALE* SUNNY 78 54 43 N5 29.94F *From Dallesport Airport Elev 240 3,080 REDMOND SUNNY 80 42 25 VRB3 30.05F 4,100 KLAMATH FALLS SUNNY 75 50 41 SE5 30.13F
I-5 North to South 1100 AM PDT TUE MAY 23 2017 ELEVA CITY SKY/WX TMP DP RH WIND PRES REMARKS 150 BELLINGHAM SUNNY 63 54 72 S14G24 29.97S 100 ARLINGTON SUNNY 66 48 52 N5 30.03F 610 EVERETT SUNNY 65 51 60 N5 30.02F 30 SEATAC AIRPORT MOSUNNY 72 56 57 W8 30.00F 200 OLYMPIA SUNNY 74 54 49 W5 30.01F 20 KELSO SUNNY 70 55 59 NW9 30.03F 100 VANCOUVER SUNNY 76 53 44 NW9 30.00F 40 PORTLAND MOSUNNY 74 51 44 N6 30.01S 200 SALEM SUNNY 79 54 41 N7 30.01S 360 EUGENE MOSUNNY 76 60 57 N10 30.02S 510 ROSEBURG SUNNY 79 56 45 NE5 30.00F 1,300 MEDFORD SUNNY 79 54 41 N3 30.00F
Data from:
http://www.wrh.noaa.gov/sew/get.php?pil=RWR&sid=OR&version=0&format=printer
http://www.wrh.noaa.gov/sew/get.php?pil=RWR&sid=WA&version=0&format=printer

Current Observations

Washington State Current Weather Observations   …  Oregon State Current Weather Observation



48 Hour Forecast

Seattle  …  Vancouver  …  Portland
————————————————————————————————————————
Bend  …  Spokane  …  Richland  …  Pendleton  …  Blue Mountains I-84  …  Yakima
————————————————————————————————————————
Goldendale, Washington Higher Elevations  …  Dallesport Airport - Goldendale  …  Bingen - White Salmon - Hood River  …  Index


Top of Page